Time,TemperatureF,DewpointF,PressureIn,WindDirection,WindDirectionDegrees,WindSpeedMPH,WindSpeedGustMPH,Humidity,HourlyPrecipIn,Conditions,Clouds,dailyrainin,SolarRadiationWatts/m^2,SoftwareType,DateUTC
2013-04-28 00:01:00,48.0,48.0,-100.00,WSW,246,1.0,4.0,100,0.00,,,0.38,0.000000,,2013-04-28 07:01:00,
2013-04-28 00:11:00,48.0,48.0,-100.00,WSW,246,1.0,4.0,100,0.00,,,0.38,0.000000,,2013-04-28 07:11:00,
2013-04-28 00:21:00,48.0,48.0,-100.00,WSW,246,1.0,4.0,100,0.00,,,0.38,0.000000,,2013-04-28 07:21:00,
2013-04-28 00:31:00,48.0,48.0,-100.00,WSW,246,1.0,4.0,100,0.00,,,0.38,0.000000,,2013-04-28 07:31:00,
2013-04-28 00:52:00,47.0,47.0,-100.00,SSW,205,0.0,4.0,100,0.00,,,0.38,0.000000,,2013-04-28 07:52:00,
2013-04-28 01:02:00,47.0,47.0,-100.00,SSW,205,0.0,4.0,100,0.00,,,0.38,0.000000,,2013-04-28 08:02:00,
2013-04-28 01:11:00,47.0,47.0,-100.00,SSW,205,0.0,4.0,100,0.00,,,0.38,0.000000,,2013-04-28 08:11:00,
2013-04-28 01:21:00,47.0,47.0,-100.00,SSW,205,0.0,4.0,100,0.00,,,0.38,0.000000,,2013-04-28 08:21:00,
2013-04-28 01:32:00,47.0,47.0,-100.00,SSW,205,0.0,4.0,100,0.00,,,0.38,0.000000,,2013-04-28 08:32:00,
2013-04-28 01:52:00,46.0,45.0,-100.00,SE,126,0.0,7.0,98,0.06,,,0.44,0.000000,,2013-04-28 08:52:00,
2013-04-28 02:01:00,46.0,45.0,-100.00,SE,126,0.0,7.0,98,0.06,,,0.44,0.000000,,2013-04-28 09:01:00,
2013-04-28 02:11:00,46.0,45.0,-100.00,SE,126,0.0,7.0,98,0.06,,,0.44,0.000000,,2013-04-28 09:11:00,
2013-04-28 02:21:00,46.0,45.0,-100.00,SE,126,0.0,7.0,98,0.06,,,0.44,0.000000,,2013-04-28 09:21:00,
2013-04-28 02:32:00,46.0,45.0,-100.00,SE,126,0.0,7.0,98,0.06,,,0.44,0.000000,,2013-04-28 09:32:00,
2013-04-28 02:53:00,46.0,46.0,-100.00,SE,124,1.0,3.0,99,0.02,,,-99.99,0.000000,,2013-04-28 09:53:00,
2013-04-28 03:03:00,46.0,46.0,-100.00,SE,124,1.0,3.0,99,0.02,,,-99.99,0.000000,,2013-04-28 10:03:00,
2013-04-28 03:12:00,46.0,46.0,-100.00,SE,124,1.0,3.0,99,0.02,,,-99.99,0.000000,,2013-04-28 10:12:00,
2013-04-28 03:22:00,46.0,46.0,-100.00,SE,124,1.0,3.0,99,0.02,,,-99.99,0.000000,,2013-04-28 10:22:00,
2013-04-28 03:32:00,46.0,46.0,-100.00,SE,124,1.0,3.0,99,0.02,,,-99.99,0.000000,,2013-04-28 10:32:00,
2013-04-28 03:52:00,45.0,45.0,-100.00,ENE,75,0.0,4.0,99,0.00,,,0.46,0.000000,,2013-04-28 10:52:00,
2013-04-28 04:02:00,45.0,45.0,-100.00,ENE,75,0.0,4.0,99,0.00,,,0.46,0.000000,,2013-04-28 11:02:00,
2013-04-28 04:11:00,45.0,45.0,-100.00,ENE,75,0.0,4.0,99,0.00,,,0.46,0.000000,,2013-04-28 11:11:00,
2013-04-28 04:21:00,45.0,45.0,-100.00,ENE,75,0.0,4.0,99,0.00,,,0.46,0.000000,,2013-04-28 11:21:00,
2013-04-28 04:32:00,45.0,45.0,-100.00,ENE,75,0.0,4.0,99,0.00,,,0.46,0.000000,,2013-04-28 11:32:00,
2013-04-28 04:52:00,45.0,45.0,-100.00,SSW,210,0.0,2.0,100,0.00,,,0.46,0.000000,,2013-04-28 11:52:00,
2013-04-28 05:01:00,45.0,45.0,-100.00,SSW,210,0.0,2.0,100,0.00,,,0.46,0.000000,,2013-04-28 12:01:00,
2013-04-28 05:11:00,45.0,45.0,-100.00,SSW,210,0.0,2.0,100,0.00,,,0.46,0.000000,,2013-04-28 12:11:00,
2013-04-28 05:21:00,45.0,45.0,-100.00,SSW,210,0.0,2.0,100,0.00,,,0.46,0.000000,,2013-04-28 12:21:00,
2013-04-28 05:32:00,45.0,45.0,-100.00,SSW,210,0.0,2.0,100,0.00,,,0.46,0.000000,,2013-04-28 12:32:00,
2013-04-28 05:52:00,44.0,44.0,-100.00,East,81,0.0,2.0,100,0.01,,,-99.99,0.000000,,2013-04-28 12:52:00,
2013-04-28 06:02:00,44.0,44.0,-100.00,East,81,0.0,2.0,100,0.01,,,-99.99,0.000000,,2013-04-28 13:02:00,
2013-04-28 06:11:00,44.0,44.0,-100.00,East,81,0.0,2.0,100,0.01,,,-99.99,0.000000,,2013-04-28 13:11:00,
2013-04-28 06:21:00,44.0,44.0,-100.00,East,81,0.0,2.0,100,0.01,,,-99.99,0.000000,,2013-04-28 13:21:00,
2013-04-28 06:31:00,44.0,44.0,-100.00,East,81,0.0,2.0,100,0.01,,,-99.99,0.000000,,2013-04-28 13:31:00,
2013-04-28 06:52:00,43.0,43.0,-100.00,ESE,117,0.0,1.0,100,0.00,,,0.47,6.000000,,2013-04-28 13:52:00,
2013-04-28 07:01:00,43.0,43.0,-100.00,ESE,117,0.0,1.0,100,0.00,,,0.47,6.000000,,2013-04-28 14:01:00,
2013-04-28 07:11:00,43.0,43.0,-100.00,ESE,117,0.0,1.0,100,0.00,,,0.47,6.000000,,2013-04-28 14:11:00,
2013-04-28 07:21:00,43.0,43.0,-100.00,ESE,117,0.0,1.0,100,0.00,,,0.47,6.000000,,2013-04-28 14:21:00,
2013-04-28 07:31:00,43.0,43.0,-100.00,ESE,117,0.0,1.0,100,0.00,,,0.47,6.000000,,2013-04-28 14:31:00,
2013-04-28 07:52:00,45.0,45.0,-100.00,SW,225,0.0,3.0,100,0.01,,,0.48,30.000000,,2013-04-28 14:52:00,
2013-04-28 08:01:00,45.0,45.0,-100.00,SW,225,0.0,3.0,100,0.01,,,0.48,30.000000,,2013-04-28 15:01:00,
2013-04-28 08:12:00,45.0,45.0,-100.00,SW,225,0.0,3.0,100,0.01,,,0.48,30.000000,,2013-04-28 15:12:00,
2013-04-28 08:21:00,45.0,45.0,-100.00,SW,225,0.0,3.0,100,0.01,,,0.48,30.000000,,2013-04-28 15:21:00,
2013-04-28 08:32:00,45.0,45.0,-100.00,SW,225,0.0,3.0,100,0.01,,,0.48,30.000000,,2013-04-28 15:32:00,
2013-04-28 08:53:00,46.0,45.0,-100.00,East,96,0.0,4.0,97,0.03,,,0.51,73.000000,,2013-04-28 15:53:00,
2013-04-28 09:03:00,46.0,45.0,-100.00,East,96,0.0,4.0,97,0.03,,,0.51,73.000000,,2013-04-28 16:03:00,
2013-04-28 09:13:00,46.0,45.0,-100.00,East,96,0.0,4.0,97,0.03,,,0.51,73.000000,,2013-04-28 16:13:00,
2013-04-28 09:23:00,46.0,45.0,-100.00,East,96,0.0,4.0,97,0.03,,,0.51,73.000000,,2013-04-28 16:23:00,
2013-04-28 09:32:00,46.0,45.0,-100.00,East,96,0.0,4.0,97,0.03,,,0.51,73.000000,,2013-04-28 16:32:00,
2013-04-28 09:52:00,48.0,45.0,-100.00,West,280,2.0,11.0,89,0.00,,,0.50,166.000000,,2013-04-28 16:52:00,
2013-04-28 10:02:00,48.0,45.0,-100.00,West,280,2.0,11.0,89,0.00,,,0.50,166.000000,,2013-04-28 17:02:00,
2013-04-28 10:12:00,48.0,45.0,-100.00,West,280,2.0,11.0,89,0.00,,,0.50,166.000000,,2013-04-28 17:12:00,
2013-04-28 10:21:00,48.0,45.0,-100.00,West,280,2.0,11.0,89,0.00,,,0.50,166.000000,,2013-04-28 17:21:00,
2013-04-28 10:32:00,48.0,45.0,-100.00,West,280,2.0,11.0,89,0.00,,,0.50,166.000000,,2013-04-28 17:32:00,
2013-04-28 10:52:00,48.0,45.0,-100.00,North,358,1.0,5.0,88,0.00,,,0.47,163.000000,,2013-04-28 17:52:00,
2013-04-28 11:02:00,48.0,45.0,-100.00,North,358,1.0,5.0,88,0.00,,,0.47,163.000000,,2013-04-28 18:02:00,
2013-04-28 11:12:00,48.0,45.0,-100.00,North,358,1.0,5.0,88,0.00,,,0.47,163.000000,,2013-04-28 18:12:00,
2013-04-28 11:22:00,48.0,45.0,-100.00,North,358,1.0,5.0,88,0.00,,,0.47,163.000000,,2013-04-28 18:22:00,
2013-04-28 11:32:00,48.0,45.0,-100.00,North,358,1.0,5.0,88,0.00,,,0.47,163.000000,,2013-04-28 18:32:00,
2013-04-28 11:52:00,50.0,43.0,-100.00,West,273,3.0,6.0,78,0.00,,,0.42,385.000000,,2013-04-28 18:52:00,
2013-04-28 12:02:00,50.0,43.0,-100.00,West,273,3.0,6.0,78,0.00,,,0.42,385.000000,,2013-04-28 19:02:00,
2013-04-28 12:11:00,50.0,43.0,-100.00,West,273,3.0,6.0,78,0.00,,,0.42,385.000000,,2013-04-28 19:11:00,
2013-04-28 12:21:00,50.0,43.0,-100.00,West,273,3.0,6.0,78,0.00,,,0.42,385.000000,,2013-04-28 19:21:00,
2013-04-28 12:31:00,50.0,43.0,-100.00,West,273,3.0,6.0,78,0.00,,,0.42,385.000000,,2013-04-28 19:31:00,
2013-04-28 12:52:00,52.0,42.0,-100.00,West,275,3.0,9.0,69,0.00,,,0.37,470.000000,,2013-04-28 19:52:00,
2013-04-28 13:01:00,52.0,42.0,-100.00,West,275,3.0,9.0,69,0.00,,,0.37,470.000000,,2013-04-28 20:01:00,
2013-04-28 13:11:00,52.0,42.0,-100.00,West,275,3.0,9.0,69,0.00,,,0.37,470.000000,,2013-04-28 20:11:00,
2013-04-28 13:22:00,52.0,42.0,-100.00,West,275,3.0,9.0,69,0.00,,,0.37,470.000000,,2013-04-28 20:22:00,
2013-04-28 13:32:00,52.0,42.0,-100.00,West,275,3.0,9.0,69,0.00,,,0.37,470.000000,,2013-04-28 20:32:00,
2013-04-28 13:52:00,54.0,40.0,-100.00,WSW,251,3.0,9.0,60,0.00,,,0.34,489.000000,,2013-04-28 20:52:00,
2013-04-28 14:01:00,54.0,40.0,-100.00,WSW,251,3.0,9.0,60,0.00,,,0.34,489.000000,,2013-04-28 21:01:00,
2013-04-28 14:11:00,54.0,40.0,-100.00,WSW,251,3.0,9.0,60,0.00,,,0.34,489.000000,,2013-04-28 21:11:00,
2013-04-28 14:21:00,54.0,40.0,-100.00,WSW,251,3.0,9.0,60,0.00,,,0.34,489.000000,,2013-04-28 21:21:00,
2013-04-28 14:32:00,54.0,40.0,-100.00,WSW,251,3.0,9.0,60,0.00,,,0.34,489.000000,,2013-04-28 21:32:00,
2013-04-28 14:33:00,54.0,40.0,-100.00,SW,231,3.0,11.0,58,0.00,,,0.29,401.000000,,2013-04-28 21:33:00,
2013-04-28 14:53:00,54.0,40.0,-100.00,SW,231,3.0,11.0,58,0.00,,,0.29,401.000000,,2013-04-28 21:53:00,
2013-04-28 15:02:00,54.0,40.0,-100.00,SW,231,3.0,11.0,58,0.00,,,0.29,401.000000,,2013-04-28 22:02:00,
2013-04-28 15:12:00,54.0,40.0,-100.00,SW,231,3.0,11.0,58,0.00,,,0.29,401.000000,,2013-04-28 22:12:00,
2013-04-28 15:22:00,54.0,40.0,-100.00,SW,231,3.0,11.0,58,0.00,,,0.29,401.000000,,2013-04-28 22:22:00,
2013-04-28 15:52:00,51.0,41.0,-100.00,SSW,196,4.0,10.0,69,0.00,,,0.26,333.000000,,2013-04-28 22:52:00,
2013-04-28 16:02:00,51.0,41.0,-100.00,SSW,196,4.0,10.0,69,0.00,,,0.26,333.000000,,2013-04-28 23:02:00,
2013-04-28 16:12:00,51.0,41.0,-100.00,SSW,196,4.0,10.0,69,0.00,,,0.26,333.000000,,2013-04-28 23:12:00,
2013-04-28 16:21:00,51.0,41.0,-100.00,SSW,196,4.0,10.0,69,0.00,,,0.26,333.000000,,2013-04-28 23:21:00,
2013-04-28 16:32:00,51.0,41.0,-100.00,SSW,196,4.0,10.0,69,0.00,,,0.26,333.000000,,2013-04-28 23:32:00,
2013-04-28 16:52:00,50.0,41.0,-100.00,South,182,5.0,14.0,71,0.00,,,0.25,190.000000,,2013-04-28 23:52:00,
2013-04-28 17:01:00,50.0,41.0,-100.00,South,182,5.0,14.0,71,0.00,,,0.25,190.000000,,2013-04-29 00:01:00,
2013-04-28 17:11:00,50.0,41.0,-100.00,South,182,5.0,14.0,71,0.00,,,0.25,190.000000,,2013-04-29 00:11:00,
2013-04-28 17:22:00,50.0,41.0,-100.00,South,182,5.0,14.0,71,0.00,,,0.25,190.000000,,2013-04-29 00:22:00,
2013-04-28 17:32:00,50.0,41.0,-100.00,South,182,5.0,14.0,71,0.00,,,0.25,190.000000,,2013-04-29 00:32:00,
2013-04-28 17:52:00,48.0,44.0,-100.00,SSW,194,4.0,16.0,85,0.01,,,0.22,112.000000,,2013-04-29 00:52:00,
2013-04-28 18:01:00,48.0,44.0,-100.00,SSW,194,4.0,16.0,85,0.01,,,0.22,112.000000,,2013-04-29 01:01:00,
2013-04-28 18:12:00,48.0,44.0,-100.00,SSW,194,4.0,16.0,85,0.01,,,0.22,112.000000,,2013-04-29 01:12:00,
2013-04-28 18:21:00,48.0,44.0,-100.00,SSW,194,4.0,16.0,85,0.01,,,0.22,112.000000,,2013-04-29 01:21:00,
2013-04-28 18:32:00,48.0,44.0,-100.00,SSW,194,4.0,16.0,85,0.01,,,0.22,112.000000,,2013-04-29 01:32:00,
2013-04-28 18:52:00,46.0,45.0,-100.00,South,187,3.0,9.0,96,0.09,,,0.27,42.000000,,2013-04-29 01:52:00,
2013-04-28 19:01:00,46.0,45.0,-100.00,South,187,3.0,9.0,96,0.09,,,0.27,42.000000,,2013-04-29 02:01:00,
2013-04-28 19:11:00,46.0,45.0,-100.00,South,187,3.0,9.0,96,0.09,,,0.27,42.000000,,2013-04-29 02:11:00,
2013-04-28 19:21:00,46.0,45.0,-100.00,South,187,3.0,9.0,96,0.09,,,0.27,42.000000,,2013-04-29 02:21:00,
2013-04-28 19:31:00,46.0,45.0,-100.00,South,187,3.0,9.0,96,0.09,,,0.27,42.000000,,2013-04-29 02:31:00,
2013-04-28 19:52:00,46.0,45.0,-100.00,South,175,3.0,9.0,96,0.08,,,0.35,18.000000,,2013-04-29 02:52:00,
2013-04-28 20:01:00,46.0,45.0,-100.00,South,175,3.0,9.0,96,0.08,,,0.35,18.000000,,2013-04-29 03:01:00,
2013-04-28 20:12:00,46.0,45.0,-100.00,South,175,3.0,9.0,96,0.08,,,0.35,18.000000,,2013-04-29 03:12:00,
2013-04-28 20:21:00,46.0,45.0,-100.00,South,175,3.0,9.0,96,0.08,,,0.35,18.000000,,2013-04-29 03:21:00,
2013-04-28 20:32:00,46.0,45.0,-100.00,South,175,3.0,9.0,96,0.08,,,0.35,18.000000,,2013-04-29 03:32:00,
2013-04-28 20:53:00,46.0,45.0,-100.00,South,191,4.0,11.0,96,0.15,,,-99.99,3.000000,,2013-04-29 03:53:00,
2013-04-28 21:02:00,46.0,45.0,-100.00,South,191,4.0,11.0,96,0.15,,,-99.99,3.000000,,2013-04-29 04:02:00,
2013-04-28 21:12:00,46.0,45.0,-100.00,South,191,4.0,11.0,96,0.15,,,-99.99,3.000000,,2013-04-29 04:12:00,
2013-04-28 21:23:00,46.0,45.0,-100.00,South,191,4.0,11.0,96,0.15,,,-99.99,3.000000,,2013-04-29 04:23:00,
2013-04-28 21:32:00,46.0,45.0,-100.00,South,191,4.0,11.0,96,0.15,,,-99.99,3.000000,,2013-04-29 04:32:00,
2013-04-28 21:52:00,47.0,46.0,-100.00,South,189,4.0,13.0,96,0.13,,,0.61,0.000000,,2013-04-29 04:52:00,
2013-04-28 22:02:00,47.0,46.0,-100.00,South,189,4.0,13.0,96,0.13,,,0.61,0.000000,,2013-04-29 05:02:00,
2013-04-28 22:12:00,47.0,46.0,-100.00,South,189,4.0,13.0,96,0.13,,,0.61,0.000000,,2013-04-29 05:12:00,
2013-04-28 22:22:00,47.0,46.0,-100.00,South,189,4.0,13.0,96,0.13,,,0.61,0.000000,,2013-04-29 05:22:00,
2013-04-28 22:32:00,47.0,46.0,-100.00,South,189,4.0,13.0,96,0.13,,,0.61,0.000000,,2013-04-29 05:32:00,
2013-04-28 22:52:00,47.0,46.0,-100.00,SW,216,2.0,10.0,97,0.11,,,0.70,0.000000,,2013-04-29 05:52:00,
2013-04-28 23:02:00,47.0,46.0,-100.00,SW,216,2.0,10.0,97,0.11,,,0.70,0.000000,,2013-04-29 06:02:00,
2013-04-28 23:11:00,47.0,46.0,-100.00,SW,216,2.0,10.0,97,0.11,,,0.70,0.000000,,2013-04-29 06:11:00,
2013-04-28 23:21:00,47.0,46.0,-100.00,SW,216,2.0,10.0,97,0.11,,,0.70,0.000000,,2013-04-29 06:21:00,
2013-04-28 23:32:00,47.0,46.0,-100.00,SW,216,2.0,10.0,97,0.11,,,0.70,0.000000,,2013-04-29 06:32:00,
2013-04-28 23:52:00,46.0,45.0,-100.00,WNW,284,2.0,12.0,96,0.14,,,0.84,0.000000,,2013-04-29 06:52:00,